Year,Month,Day,Hour,Minute,Value (Times are PST for temperature in C)
2008,10,23,00,00,8.80
2008,10,23,00,01,8.70
2008,10,23,00,02,8.70
2008,10,23,00,03,8.70
2008,10,23,00,04,8.70
2008,10,23,00,05,8.70
2008,10,23,00,06,8.70
2008,10,23,00,07,8.70
2008,10,23,00,08,8.70
2008,10,23,00,09,8.70
2008,10,23,00,10,8.70
2008,10,23,00,11,8.70
2008,10,23,00,12,8.70
2008,10,23,00,13,8.70
2008,10,23,01,02,9.40
2008,10,23,01,03,9.40
2008,10,23,01,04,9.40
2008,10,23,01,05,9.40
2008,10,23,01,06,9.40
2008,10,23,01,07,9.50
2008,10,23,01,08,9.50
2008,10,23,01,09,9.50
2008,10,23,01,10,9.50
2008,10,23,01,11,9.50
2008,10,23,01,12,9.40
2008,10,23,01,13,9.40
2008,10,23,01,14,9.40
2008,10,23,01,15,9.40
2008,10,23,01,16,9.40
2008,10,23,01,17,9.40
2008,10,23,01,18,9.40
2008,10,23,01,19,9.40
2008,10,23,01,20,9.40
2008,10,23,01,21,9.40
2008,10,23,01,22,9.40
2008,10,23,01,23,9.40
2008,10,23,01,24,9.40
2008,10,23,01,25,9.40
2008,10,23,01,26,9.40
2008,10,23,01,27,9.40
2008,10,23,01,28,9.40
2008,10,23,01,29,9.40
2008,10,23,01,30,9.40
2008,10,23,01,31,9.40
2008,10,23,01,32,9.40
2008,10,23,01,33,9.40
2008,10,23,01,34,9.40
2008,10,23,01,35,9.40
2008,10,23,01,36,9.40
2008,10,23,01,37,9.40
2008,10,23,01,38,9.40
2008,10,23,01,39,9.40
2008,10,23,01,40,9.40
2008,10,23,01,41,9.40
2008,10,23,01,42,9.40
2008,10,23,01,43,9.40
2008,10,23,01,44,9.40
2008,10,23,01,45,9.30
2008,10,23,01,46,9.30
2008,10,23,01,47,9.30
2008,10,23,01,48,9.30
2008,10,23,01,49,9.30
2008,10,23,01,50,9.30
2008,10,23,01,51,9.30
2008,10,23,01,52,9.30
2008,10,23,01,53,9.30
2008,10,23,01,54,9.30
2008,10,23,01,55,9.30
2008,10,23,01,56,9.30
2008,10,23,01,57,9.30
2008,10,23,01,58,9.30
2008,10,23,01,59,9.30
2008,10,23,02,00,9.30
2008,10,23,02,01,9.30
2008,10,23,02,02,9.30
2008,10,23,02,03,9.30
2008,10,23,02,04,9.30
2008,10,23,02,05,9.30
2008,10,23,02,06,9.30
2008,10,23,02,07,9.20
2008,10,23,02,08,9.20
2008,10,23,02,09,9.20
2008,10,23,02,10,9.20
2008,10,23,02,11,9.20
2008,10,23,02,12,9.20
2008,10,23,02,13,9.20
2008,10,23,02,14,9.20
2008,10,23,02,15,9.20
2008,10,23,02,16,9.20
2008,10,23,02,17,9.20
2008,10,23,02,18,9.20
2008,10,23,02,19,9.20
2008,10,23,02,20,9.20
2008,10,23,02,21,9.20
2008,10,23,02,22,9.20
2008,10,23,02,23,9.20
2008,10,23,02,24,9.20
2008,10,23,02,25,9.20
2008,10,23,02,26,9.20
2008,10,23,02,27,9.20
2008,10,23,02,28,9.20
2008,10,23,02,29,9.20
2008,10,23,02,30,9.20
2008,10,23,02,31,9.20
2008,10,23,02,32,9.20
2008,10,23,02,33,9.20
2008,10,23,02,34,9.20
2008,10,23,02,35,9.20
2008,10,23,02,36,9.10
2008,10,23,02,37,9.10
2008,10,23,02,38,9.10
2008,10,23,02,39,9.10
2008,10,23,02,40,9.10
2008,10,23,02,41,9.00
2008,10,23,02,42,9.00
2008,10,23,02,43,9.00
2008,10,23,02,44,9.00
2008,10,23,02,45,9.00
2008,10,23,02,46,9.00
2008,10,23,02,47,9.00
2008,10,23,02,48,8.90
2008,10,23,02,49,8.90
2008,10,23,02,50,8.90
2008,10,23,02,51,8.90
2008,10,23,02,52,8.90
2008,10,23,02,53,8.80
2008,10,23,02,54,8.80
2008,10,23,02,55,8.80
2008,10,23,02,56,8.80
2008,10,23,02,57,8.70
2008,10,23,02,58,8.70
2008,10,23,02,59,8.70
2008,10,23,03,00,8.70
2008,10,23,03,01,8.70
2008,10,23,03,02,8.70
2008,10,23,03,03,8.70
2008,10,23,03,04,8.70
2008,10,23,03,05,8.70
2008,10,23,03,06,8.70
2008,10,23,03,07,8.70
2008,10,23,03,08,8.70
2008,10,23,03,09,8.70
2008,10,23,03,10,8.70
2008,10,23,03,11,8.70
2008,10,23,03,12,8.70
2008,10,23,03,13,8.70
2008,10,23,03,14,8.70
2008,10,23,03,15,8.70
2008,10,23,03,16,8.70
2008,10,23,03,17,8.70
2008,10,23,03,18,8.70
2008,10,23,03,19,8.60
2008,10,23,03,20,8.60
2008,10,23,03,21,8.60
2008,10,23,03,22,8.60
2008,10,23,03,23,8.60
2008,10,23,03,24,8.50
2008,10,23,03,25,8.50
2008,10,23,03,26,8.50
2008,10,23,03,27,8.50
2008,10,23,03,28,8.40
2008,10,23,03,29,8.40
2008,10,23,03,30,8.40
2008,10,23,03,31,8.40
2008,10,23,03,32,8.30
2008,10,23,03,33,8.30
2008,10,23,03,34,8.30
2008,10,23,03,35,8.30
2008,10,23,03,36,8.20
2008,10,23,03,37,8.20
2008,10,23,03,38,8.20
2008,10,23,03,39,8.10
2008,10,23,03,40,8.10
2008,10,23,03,41,8.00
2008,10,23,03,42,8.00
2008,10,23,03,43,7.90
2008,10,23,03,44,7.90
2008,10,23,03,45,7.80
2008,10,23,03,46,7.80
2008,10,23,03,47,7.80
2008,10,23,03,48,7.80
2008,10,23,03,49,7.70
2008,10,23,03,50,7.70
2008,10,23,03,51,7.70
2008,10,23,03,52,7.60
2008,10,23,03,53,7.60
2008,10,23,03,54,7.60
2008,10,23,03,55,7.60
2008,10,23,03,56,7.60
2008,10,23,03,57,7.60
2008,10,23,03,58,7.60
2008,10,23,03,59,7.50
2008,10,23,04,00,7.50
2008,10,23,04,01,7.50
2008,10,23,04,02,7.50
2008,10,23,04,03,7.40
2008,10,23,04,04,7.40
2008,10,23,04,05,7.40
2008,10,23,04,06,7.40
2008,10,23,04,07,7.40
2008,10,23,04,08,7.30
2008,10,23,04,09,7.30
2008,10,23,04,10,7.30
2008,10,23,04,11,7.30
2008,10,23,04,12,7.30
2008,10,23,04,13,7.30
2008,10,23,04,14,7.30
2008,10,23,04,15,7.30
2008,10,23,04,16,7.30
2008,10,23,04,17,7.30
2008,10,23,04,18,7.30
2008,10,23,04,19,7.30
2008,10,23,04,20,7.30
2008,10,23,04,21,7.30
2008,10,23,04,22,7.30
2008,10,23,04,23,7.30
2008,10,23,04,24,7.30
2008,10,23,04,25,7.30
2008,10,23,04,26,7.30
2008,10,23,04,27,7.30
2008,10,23,04,28,7.30
2008,10,23,04,29,7.30
2008,10,23,04,30,7.30
2008,10,23,04,31,7.30
2008,10,23,04,32,7.30
2008,10,23,04,33,7.20
2008,10,23,04,34,7.20
2008,10,23,04,35,7.20
2008,10,23,04,36,7.20
2008,10,23,04,37,7.20
2008,10,23,04,38,7.20
2008,10,23,04,39,7.20
2008,10,23,04,40,7.20
2008,10,23,04,41,7.20
2008,10,23,04,42,7.20
2008,10,23,04,43,7.30
2008,10,23,04,44,7.30
2008,10,23,04,45,7.30
2008,10,23,04,46,7.30
2008,10,23,04,47,7.30
2008,10,23,04,48,7.30
2008,10,23,04,49,7.30
2008,10,23,04,50,7.30
2008,10,23,04,51,7.30
2008,10,23,04,52,7.40
2008,10,23,04,53,7.40
2008,10,23,04,54,7.40
2008,10,23,04,55,7.40
2008,10,23,04,56,7.50
2008,10,23,04,57,7.50
2008,10,23,04,58,7.40
2008,10,23,04,59,7.40
2008,10,23,05,00,7.40
2008,10,23,05,01,7.40
2008,10,23,05,02,7.40
2008,10,23,05,03,7.40
2008,10,23,05,04,7.40
2008,10,23,05,05,7.30
2008,10,23,05,06,7.30
2008,10,23,05,07,7.30
2008,10,23,05,08,7.30
2008,10,23,05,09,7.20
2008,10,23,05,10,7.20
2008,10,23,05,11,7.10
2008,10,23,05,12,7.00
2008,10,23,05,13,7.00
2008,10,23,05,14,6.90
2008,10,23,05,15,6.80
2008,10,23,05,16,6.80
2008,10,23,05,17,6.80
2008,10,23,05,18,6.70
2008,10,23,05,19,6.60
2008,10,23,05,20,6.60
2008,10,23,05,21,6.60
2008,10,23,05,22,6.50
2008,10,23,05,23,6.40
2008,10,23,05,24,6.40
2008,10,23,05,25,6.40
2008,10,23,05,26,6.40
2008,10,23,05,27,6.40
2008,10,23,05,28,6.30
2008,10,23,05,29,6.30
2008,10,23,05,30,6.30
2008,10,23,05,31,6.30
2008,10,23,05,32,6.30
2008,10,23,05,33,6.30
2008,10,23,05,34,6.30
2008,10,23,05,35,6.40
2008,10,23,05,36,6.40
2008,10,23,05,37,6.40
2008,10,23,05,38,6.40
2008,10,23,05,39,6.40
2008,10,23,05,40,6.40
2008,10,23,05,41,6.50
2008,10,23,05,42,6.60
2008,10,23,05,43,6.60
2008,10,23,05,44,6.60
2008,10,23,05,45,6.60
2008,10,23,05,46,6.60
2008,10,23,05,47,6.60
2008,10,23,05,48,6.60
2008,10,23,05,49,6.60
2008,10,23,05,50,6.60
2008,10,23,05,51,6.60
2008,10,23,05,52,6.60
2008,10,23,05,53,6.60
2008,10,23,05,54,6.60
2008,10,23,05,55,6.60
2008,10,23,05,56,6.60
2008,10,23,05,57,6.60
2008,10,23,05,58,6.60
2008,10,23,05,59,6.60
2008,10,23,06,00,6.60
2008,10,23,06,01,6.60
2008,10,23,06,02,6.60
2008,10,23,06,03,6.60
2008,10,23,06,04,6.60
2008,10,23,06,05,6.50
2008,10,23,06,06,6.40
2008,10,23,06,07,6.40
2008,10,23,06,08,6.40
2008,10,23,06,09,6.40
2008,10,23,06,10,6.40
2008,10,23,06,11,6.40
2008,10,23,06,12,6.40
2008,10,23,06,13,6.40
2008,10,23,06,14,6.40
2008,10,23,06,15,6.40
2008,10,23,06,16,6.40
2008,10,23,06,17,6.50
2008,10,23,06,18,6.60
2008,10,23,06,19,6.60
2008,10,23,06,20,6.40
2008,10,23,06,21,6.40
2008,10,23,06,22,6.40
2008,10,23,06,23,6.40
2008,10,23,06,24,6.40
2008,10,23,06,25,6.40
2008,10,23,06,26,6.40
2008,10,23,06,27,6.40
2008,10,23,06,28,6.40
2008,10,23,06,29,6.40
2008,10,23,06,30,6.30
2008,10,23,06,31,6.30
2008,10,23,06,32,6.30
2008,10,23,06,33,6.20
2008,10,23,06,34,6.20
2008,10,23,06,35,6.10
2008,10,23,06,36,6.10
2008,10,23,06,37,6.00
2008,10,23,06,38,5.90
2008,10,23,06,39,5.90
2008,10,23,06,40,5.80
2008,10,23,06,41,5.70
2008,10,23,06,42,5.70
2008,10,23,06,43,5.60
2008,10,23,06,44,5.60
2008,10,23,06,45,5.50
2008,10,23,06,46,5.40
2008,10,23,06,47,5.30
2008,10,23,06,48,5.30
2008,10,23,06,49,5.20
2008,10,23,06,50,5.20
2008,10,23,06,51,5.10
2008,10,23,06,52,5.10
2008,10,23,06,53,5.00
2008,10,23,06,54,4.90
2008,10,23,06,55,4.90
2008,10,23,06,56,4.80
2008,10,23,06,57,4.70
2008,10,23,06,58,4.70
2008,10,23,06,59,4.60
2008,10,23,07,00,4.60
2008,10,23,07,01,4.50
2008,10,23,07,02,4.40
2008,10,23,07,03,4.40
2008,10,23,07,04,4.30
2008,10,23,07,05,4.30
2008,10,23,07,06,4.20
2008,10,23,07,07,4.20
2008,10,23,07,08,4.20
2008,10,23,07,09,4.10
2008,10,23,07,10,4.10
2008,10,23,07,11,4.10
2008,10,23,07,12,4.00
2008,10,23,07,13,4.00
2008,10,23,07,14,4.00
2008,10,23,07,15,3.90
2008,10,23,07,16,3.90
2008,10,23,07,17,3.90
2008,10,23,07,18,3.80
2008,10,23,07,19,3.80
2008,10,23,07,20,3.80
2008,10,23,07,21,3.80
2008,10,23,07,22,3.80
2008,10,23,07,23,3.80
2008,10,23,07,24,3.80
2008,10,23,07,25,3.80
2008,10,23,07,26,3.80
2008,10,23,07,27,3.90
2008,10,23,07,28,3.90
2008,10,23,07,29,3.90
2008,10,23,07,30,3.90
2008,10,23,07,31,4.00
2008,10,23,07,32,4.00
2008,10,23,07,33,4.00
2008,10,23,07,34,4.00
2008,10,23,07,35,4.00
2008,10,23,07,36,4.00
2008,10,23,07,37,4.10
2008,10,23,07,38,4.10
2008,10,23,07,39,4.10
2008,10,23,07,40,4.10
2008,10,23,07,41,4.10
2008,10,23,07,42,4.10
2008,10,23,07,43,4.10
2008,10,23,07,44,4.10
2008,10,23,07,45,4.10
2008,10,23,07,46,4.20
2008,10,23,07,47,4.20
2008,10,23,07,48,4.20
2008,10,23,07,49,4.20
2008,10,23,07,50,4.20
2008,10,23,07,51,4.20
2008,10,23,07,52,4.20
2008,10,23,07,53,4.20
2008,10,23,07,54,4.20
2008,10,23,07,55,4.30
2008,10,23,07,56,4.40
2008,10,23,07,57,4.50
2008,10,23,07,58,4.50
2008,10,23,07,59,4.50
2008,10,23,08,00,4.60
2008,10,23,08,01,4.60
2008,10,23,08,02,4.60
2008,10,23,08,03,4.60
2008,10,23,08,04,4.60
2008,10,23,08,05,4.60
2008,10,23,08,06,4.60
2008,10,23,08,07,4.60
2008,10,23,08,08,4.60
2008,10,23,08,09,4.60
2008,10,23,08,10,4.60
2008,10,23,08,11,4.60
2008,10,23,08,12,4.60
2008,10,23,08,13,4.60
2008,10,23,08,14,4.60
2008,10,23,08,15,4.60
2008,10,23,08,16,4.50
2008,10,23,08,17,4.50
2008,10,23,08,18,4.50
2008,10,23,08,19,4.50
2008,10,23,08,20,4.50
2008,10,23,08,21,4.50
2008,10,23,08,22,4.40
2008,10,23,08,23,4.50
2008,10,23,08,24,4.50
2008,10,23,08,25,4.50
2008,10,23,08,26,4.50
2008,10,23,08,27,4.50
2008,10,23,08,28,4.50
2008,10,23,08,29,4.60
2008,10,23,08,30,4.60
2008,10,23,08,31,4.50
2008,10,23,08,32,4.60
2008,10,23,08,33,4.60
2008,10,23,08,34,4.60
2008,10,23,08,35,4.60
2008,10,23,08,36,4.70
2008,10,23,08,37,4.70
2008,10,23,08,38,4.70
2008,10,23,08,39,4.70
2008,10,23,08,40,4.70
2008,10,23,08,41,4.80
2008,10,23,08,42,4.80
2008,10,23,08,43,4.80
2008,10,23,08,44,4.90
2008,10,23,08,45,4.90
2008,10,23,08,46,5.00
2008,10,23,08,47,5.10
2008,10,23,08,48,5.10
2008,10,23,08,49,5.20
2008,10,23,08,50,5.30
2008,10,23,08,51,5.30
2008,10,23,08,52,5.30
2008,10,23,08,53,5.40
2008,10,23,08,54,5.40
2008,10,23,08,55,5.40
2008,10,23,08,56,5.40
2008,10,23,08,57,5.40
2008,10,23,08,58,5.40
2008,10,23,08,59,5.40
2008,10,23,09,00,5.40
2008,10,23,09,01,5.40
2008,10,23,09,02,5.40
2008,10,23,09,03,5.40
2008,10,23,09,04,5.40
2008,10,23,09,05,5.40
2008,10,23,09,06,5.50
2008,10,23,09,07,5.50
2008,10,23,09,08,5.50
2008,10,23,09,09,5.50
2008,10,23,09,10,5.50
2008,10,23,09,11,5.50
2008,10,23,09,12,5.50
2008,10,23,09,13,5.50
2008,10,23,09,14,5.50
2008,10,23,09,15,5.50
2008,10,23,09,16,5.50
2008,10,23,09,17,5.50
2008,10,23,09,18,5.60
2008,10,23,09,19,5.60
2008,10,23,09,20,5.60
2008,10,23,09,21,5.60
2008,10,23,09,22,5.70
2008,10,23,09,23,5.70
2008,10,23,09,24,5.70
2008,10,23,09,25,5.70
2008,10,23,09,26,5.70
2008,10,23,09,27,5.80
2008,10,23,09,28,5.80
2008,10,23,09,29,5.90
2008,10,23,09,30,6.00
2008,10,23,09,31,6.00
2008,10,23,09,32,6.10
2008,10,23,09,33,6.20
2008,10,23,09,34,6.20
2008,10,23,09,35,6.30
2008,10,23,09,36,6.40
2008,10,23,09,37,6.60
2008,10,23,09,38,6.70
2008,10,23,09,39,6.80
2008,10,23,09,40,6.90
2008,10,23,09,41,7.00
2008,10,23,09,42,7.10
2008,10,23,09,43,7.20
2008,10,23,09,44,7.30
2008,10,23,09,45,7.40
2008,10,23,09,46,7.50
2008,10,23,09,47,7.60
2008,10,23,09,48,7.70
2008,10,23,09,49,7.80
2008,10,23,09,50,7.90
2008,10,23,09,51,8.00
2008,10,23,09,52,8.20
2008,10,23,09,53,8.20
2008,10,23,09,54,8.40
2008,10,23,09,55,8.40
2008,10,23,09,56,8.50
2008,10,23,09,57,8.60
2008,10,23,09,58,8.70
2008,10,23,09,59,8.70
2008,10,23,10,00,8.70
2008,10,23,10,01,8.80
2008,10,23,10,02,8.90
2008,10,23,10,03,8.90
2008,10,23,10,04,9.00
2008,10,23,10,05,9.00
2008,10,23,10,06,9.00
2008,10,23,10,07,9.10
2008,10,23,10,08,9.10
2008,10,23,10,09,9.10
2008,10,23,10,10,9.10
2008,10,23,10,11,9.10
2008,10,23,10,12,9.10
2008,10,23,10,13,9.00
2008,10,23,10,14,9.00
2008,10,23,10,15,9.00
2008,10,23,10,16,9.00
2008,10,23,10,17,8.90
2008,10,23,10,18,8.90
2008,10,23,10,19,8.90
2008,10,23,10,20,8.90
2008,10,23,10,21,8.90
2008,10,23,10,22,8.90
2008,10,23,10,23,8.90
2008,10,23,10,24,9.00
2008,10,23,10,25,9.00
2008,10,23,10,26,9.10
2008,10,23,10,27,9.10
2008,10,23,10,28,9.20
2008,10,23,10,29,9.20
2008,10,23,10,30,9.20
2008,10,23,10,31,9.30
2008,10,23,10,32,9.30
2008,10,23,10,33,9.40
2008,10,23,10,34,9.40
2008,10,23,10,35,9.50
2008,10,23,10,36,9.50
2008,10,23,10,37,9.50
2008,10,23,10,38,9.60
2008,10,23,10,39,9.60
2008,10,23,10,40,9.60
2008,10,23,10,41,9.60
2008,10,23,10,42,9.70
2008,10,23,10,43,9.70
2008,10,23,10,44,9.70
2008,10,23,10,45,9.70
2008,10,23,10,46,9.70
2008,10,23,10,47,9.80
2008,10,23,10,48,9.80
2008,10,23,10,49,9.90
2008,10,23,10,50,9.90
2008,10,23,10,51,9.90
2008,10,23,10,52,9.80
2008,10,23,10,53,9.80
2008,10,23,10,54,9.70
2008,10,23,10,55,9.70
2008,10,23,10,56,9.60
2008,10,23,10,57,9.60
2008,10,23,10,58,9.60
2008,10,23,10,59,9.70
2008,10,23,11,00,9.70
2008,10,23,11,01,9.70
2008,10,23,11,02,9.70
2008,10,23,11,03,9.70
2008,10,23,11,04,9.70
2008,10,23,11,05,9.70
2008,10,23,11,06,9.70
2008,10,23,11,07,9.70
2008,10,23,11,08,9.70
2008,10,23,11,09,9.70
2008,10,23,11,10,9.70
2008,10,23,11,11,9.70
2008,10,23,11,12,9.70
2008,10,23,11,13,9.70
2008,10,23,11,14,9.80
2008,10,23,11,15,9.80
2008,10,23,11,16,9.80
2008,10,23,11,17,9.80
2008,10,23,11,18,9.80
2008,10,23,11,19,9.80
2008,10,23,11,20,9.80
2008,10,23,11,21,9.80
2008,10,23,11,22,9.90
2008,10,23,11,23,9.90
2008,10,23,11,24,9.90
2008,10,23,11,25,9.90
2008,10,23,11,26,9.90
2008,10,23,11,27,9.90
2008,10,23,11,28,9.90
2008,10,23,11,29,9.90
2008,10,23,11,30,9.90
2008,10,23,11,31,9.90
2008,10,23,11,32,9.80
2008,10,23,11,33,9.90
2008,10,23,11,34,9.90
2008,10,23,11,35,9.90
2008,10,23,11,36,9.90
2008,10,23,11,37,9.90
2008,10,23,11,38,9.90
2008,10,23,11,39,10.00
2008,10,23,11,40,10.10
2008,10,23,11,41,10.10
2008,10,23,11,42,10.10
2008,10,23,11,43,10.10
2008,10,23,11,44,10.10
2008,10,23,11,45,10.10
2008,10,23,11,46,10.10
2008,10,23,11,47,10.10
2008,10,23,11,48,10.10
2008,10,23,11,49,10.10
2008,10,23,11,50,10.10
2008,10,23,11,51,10.10
2008,10,23,11,52,10.10
2008,10,23,11,53,10.10
2008,10,23,11,54,10.10
2008,10,23,11,55,10.20
2008,10,23,11,56,10.20
2008,10,23,11,57,10.10
2008,10,23,11,58,10.10
2008,10,23,11,59,10.20
2008,10,23,12,00,10.20
2008,10,23,12,01,10.20
2008,10,23,12,02,10.30
2008,10,23,12,03,10.40
2008,10,23,12,04,10.40
2008,10,23,12,05,10.40
2008,10,23,12,06,10.40
2008,10,23,12,07,10.30
2008,10,23,12,08,10.30
2008,10,23,12,09,10.30
2008,10,23,12,10,10.30
2008,10,23,12,11,10.40
2008,10,23,12,12,10.40
2008,10,23,12,13,10.40
2008,10,23,12,14,10.40
2008,10,23,12,15,10.40
2008,10,23,12,16,10.40
2008,10,23,12,17,10.40
2008,10,23,12,18,10.40
2008,10,23,12,19,10.40
2008,10,23,12,20,10.40
2008,10,23,12,21,10.40
2008,10,23,12,22,10.50
2008,10,23,12,23,10.60
2008,10,23,12,24,10.60
2008,10,23,12,25,10.60
2008,10,23,12,26,10.60
2008,10,23,12,27,10.60
2008,10,23,12,28,10.60
2008,10,23,12,29,10.60
2008,10,23,12,30,10.50
2008,10,23,12,31,10.60
2008,10,23,12,32,10.60
2008,10,23,12,33,10.60
2008,10,23,12,34,10.60
2008,10,23,12,35,10.60
2008,10,23,12,36,10.60
2008,10,23,12,37,10.60
2008,10,23,12,38,10.60
2008,10,23,12,39,10.70
2008,10,23,12,40,10.70
2008,10,23,12,41,10.70
2008,10,23,12,42,10.70
2008,10,23,12,43,10.70
2008,10,23,12,44,10.70
2008,10,23,12,45,10.70
2008,10,23,12,46,10.70
2008,10,23,12,47,10.80
2008,10,23,12,48,10.80
2008,10,23,12,49,10.80
2008,10,23,12,50,10.80
2008,10,23,12,51,10.80
2008,10,23,12,52,10.80
2008,10,23,12,53,10.80
2008,10,23,12,54,10.70
2008,10,23,12,55,10.70
2008,10,23,12,56,10.70
2008,10,23,12,57,10.70
2008,10,23,12,58,10.70
2008,10,23,12,59,10.60
2008,10,23,13,00,10.60
2008,10,23,13,01,10.60
2008,10,23,13,02,10.70
2008,10,23,13,03,10.70
2008,10,23,13,04,10.80
2008,10,23,13,05,10.90
2008,10,23,13,06,10.90
2008,10,23,13,07,10.90
2008,10,23,13,08,11.10
2008,10,23,13,09,11.10
2008,10,23,13,10,11.10
2008,10,23,13,11,11.20
2008,10,23,13,12,11.20
2008,10,23,13,13,11.20
2008,10,23,13,14,11.30
2008,10,23,13,15,11.30
2008,10,23,13,16,11.30
2008,10,23,13,17,11.30
2008,10,23,13,18,11.30
2008,10,23,13,19,11.30
2008,10,23,13,20,11.30
2008,10,23,13,21,11.30
2008,10,23,13,22,11.40
2008,10,23,13,23,11.40
2008,10,23,13,24,11.40
2008,10,23,13,25,11.40
2008,10,23,13,26,11.40
2008,10,23,13,27,11.40
2008,10,23,13,28,11.40
2008,10,23,13,29,11.40
2008,10,23,13,30,11.30
2008,10,23,13,31,11.30
2008,10,23,13,32,11.30
2008,10,23,13,33,11.30
2008,10,23,13,34,11.30
2008,10,23,13,35,11.30
2008,10,23,13,36,11.30
2008,10,23,13,37,11.20
2008,10,23,13,38,11.30
2008,10,23,13,39,11.30
2008,10,23,13,40,11.30
2008,10,23,13,41,11.30
2008,10,23,13,42,11.40
2008,10,23,13,43,11.40
2008,10,23,13,44,11.40
2008,10,23,13,45,11.40
2008,10,23,13,46,11.40
2008,10,23,13,47,11.40
2008,10,23,13,48,11.40
2008,10,23,13,49,11.40
2008,10,23,13,50,11.40
2008,10,23,13,51,11.50
2008,10,23,13,52,11.60
2008,10,23,13,53,11.60
2008,10,23,13,54,11.60
2008,10,23,13,55,11.60
2008,10,23,13,56,11.60
2008,10,23,13,57,11.60
2008,10,23,13,58,11.60
2008,10,23,13,59,11.60
2008,10,23,14,00,11.60
2008,10,23,14,01,11.60
2008,10,23,14,02,11.60
2008,10,23,14,03,11.60
2008,10,23,14,04,11.60
2008,10,23,14,05,11.60
2008,10,23,14,06,11.60
2008,10,23,14,07,11.60
2008,10,23,14,08,11.50
2008,10,23,14,09,11.40
2008,10,23,14,10,11.40
2008,10,23,14,11,11.30
2008,10,23,14,12,11.30
2008,10,23,14,13,11.40
2008,10,23,14,14,11.30
2008,10,23,14,15,11.30
2008,10,23,14,16,11.40
2008,10,23,14,17,11.40
2008,10,23,14,18,11.50
2008,10,23,14,19,11.60
2008,10,23,14,20,11.60
2008,10,23,14,21,11.60
2008,10,23,14,22,11.60
2008,10,23,14,23,11.70
2008,10,23,14,24,11.70
2008,10,23,14,25,11.70
2008,10,23,14,26,11.70
2008,10,23,14,27,11.70
2008,10,23,14,28,11.70
2008,10,23,14,29,11.70
2008,10,23,14,30,11.70
2008,10,23,14,31,11.60
2008,10,23,14,32,11.60
2008,10,23,14,33,11.70
2008,10,23,14,34,11.70
2008,10,23,14,35,11.70
2008,10,23,14,36,11.60
2008,10,23,14,37,11.60
2008,10,23,14,38,11.60
2008,10,23,14,39,11.60
2008,10,23,14,40,11.50
2008,10,23,14,41,11.40
2008,10,23,14,42,11.40
2008,10,23,14,43,11.40
2008,10,23,14,44,11.40
2008,10,23,14,45,11.40
2008,10,23,14,46,11.40
2008,10,23,14,47,11.40
2008,10,23,14,48,11.40
2008,10,23,14,49,11.40
2008,10,23,14,50,11.40
2008,10,23,14,51,11.40
2008,10,23,14,52,11.40
2008,10,23,14,53,11.40
2008,10,23,14,54,11.40
2008,10,23,14,55,11.40
2008,10,23,14,56,11.40
2008,10,23,14,57,11.60
2008,10,23,14,58,11.60
2008,10,23,14,59,11.60
2008,10,23,15,00,11.60
2008,10,23,15,01,11.60
2008,10,23,15,02,11.60
2008,10,23,15,03,11.60
2008,10,23,15,04,11.60
2008,10,23,15,05,11.60
2008,10,23,15,06,11.60
2008,10,23,15,07,11.60
2008,10,23,15,08,11.50
2008,10,23,15,09,11.40
2008,10,23,15,10,11.30
2008,10,23,15,11,11.20
2008,10,23,15,12,11.20
2008,10,23,15,13,11.20
2008,10,23,15,14,11.20
2008,10,23,15,15,11.10
2008,10,23,15,16,11.20
2008,10,23,15,17,11.20
2008,10,23,15,18,11.20
2008,10,23,15,19,11.30
2008,10,23,15,20,11.30
2008,10,23,15,21,11.30
2008,10,23,15,22,11.30
2008,10,23,15,23,11.30
2008,10,23,15,24,11.30
2008,10,23,15,25,11.20
2008,10,23,15,26,11.20
2008,10,23,15,27,11.20
2008,10,23,15,28,11.20
2008,10,23,15,29,11.20
2008,10,23,15,30,11.20
2008,10,23,15,31,11.30
2008,10,23,15,32,11.30
2008,10,23,15,33,11.40
2008,10,23,15,34,11.40
2008,10,23,15,35,11.40
2008,10,23,15,36,11.40
2008,10,23,15,37,11.40
2008,10,23,15,38,11.40
2008,10,23,15,39,11.40
2008,10,23,15,40,11.40
2008,10,23,15,41,11.30
2008,10,23,15,42,11.20
2008,10,23,15,43,11.20
2008,10,23,15,44,11.20
2008,10,23,15,45,11.10
2008,10,23,15,46,11.10
2008,10,23,15,47,11.10
2008,10,23,15,48,11.20
2008,10,23,15,49,11.20
2008,10,23,15,50,11.20
2008,10,23,15,51,11.10
2008,10,23,15,52,11.10
2008,10,23,15,53,11.10
2008,10,23,15,54,11.10
2008,10,23,15,55,11.10
2008,10,23,15,56,11.10
2008,10,23,15,57,11.10
2008,10,23,15,58,11.20
2008,10,23,15,59,11.20
2008,10,23,16,00,11.30
2008,10,23,16,01,11.30
2008,10,23,16,02,11.40
2008,10,23,16,03,11.40
2008,10,23,16,04,11.40
2008,10,23,16,05,11.40
2008,10,23,16,06,11.50
2008,10,23,16,07,11.60
2008,10,23,16,08,11.60
2008,10,23,16,09,11.50
2008,10,23,16,10,11.40
2008,10,23,16,11,11.40
2008,10,23,16,12,11.40
2008,10,23,16,13,11.30
2008,10,23,16,14,11.20
2008,10,23,16,15,11.20
2008,10,23,16,16,11.10
2008,10,23,16,17,11.00
2008,10,23,16,18,10.90
2008,10,23,16,19,10.90
2008,10,23,16,20,10.90
2008,10,23,16,21,10.80
2008,10,23,16,22,10.80
2008,10,23,16,23,10.70
2008,10,23,16,24,10.70
2008,10,23,16,25,10.70
2008,10,23,16,26,10.60
2008,10,23,16,27,10.60
2008,10,23,16,28,10.60
2008,10,23,16,29,10.60
2008,10,23,16,30,10.40
2008,10,23,16,31,10.40
2008,10,23,16,32,10.40
2008,10,23,16,33,10.40
2008,10,23,16,34,10.40
2008,10,23,16,35,10.30
2008,10,23,16,36,10.30
2008,10,23,16,37,10.30
2008,10,23,16,38,10.20
2008,10,23,16,39,10.20
2008,10,23,16,40,10.20
2008,10,23,16,41,10.20
2008,10,23,16,42,10.10
2008,10,23,16,43,10.10
2008,10,23,16,44,10.10
2008,10,23,16,45,10.10
2008,10,23,16,46,10.10
2008,10,23,16,47,10.10
2008,10,23,16,48,10.10
2008,10,23,16,49,10.10
2008,10,23,16,50,10.10
2008,10,23,16,51,10.10
2008,10,23,16,52,10.10
2008,10,23,16,53,10.10
2008,10,23,16,54,10.20
2008,10,23,16,55,10.20
2008,10,23,16,56,10.20
2008,10,23,16,57,10.20
2008,10,23,16,58,10.30
2008,10,23,16,59,10.30
2008,10,23,17,00,10.30
2008,10,23,17,01,10.30
2008,10,23,17,02,10.40
2008,10,23,17,03,10.40
2008,10,23,17,04,10.40
2008,10,23,17,05,10.40
2008,10,23,17,06,10.40
2008,10,23,17,07,10.40
2008,10,23,17,08,10.40
2008,10,23,17,09,10.40
2008,10,23,17,10,10.40
2008,10,23,17,11,10.40
2008,10,23,17,12,10.50
2008,10,23,17,13,10.60
2008,10,23,17,14,10.60
2008,10,23,17,15,10.60
2008,10,23,17,16,10.50
2008,10,23,17,17,10.40
2008,10,23,17,18,10.40
2008,10,23,17,19,10.40
2008,10,23,17,20,10.40
2008,10,23,17,21,10.40
2008,10,23,17,22,10.40
2008,10,23,17,23,10.40
2008,10,23,17,24,10.30
2008,10,23,17,25,10.30
2008,10,23,17,26,10.20
2008,10,23,17,27,10.20
2008,10,23,17,28,10.10
2008,10,23,17,29,10.10
2008,10,23,17,30,10.10
2008,10,23,17,31,10.00
2008,10,23,17,32,9.90
2008,10,23,17,33,9.90
2008,10,23,17,34,9.80
2008,10,23,17,35,9.70
2008,10,23,17,36,9.70
2008,10,23,17,37,9.60
2008,10,23,17,38,9.60
2008,10,23,17,39,9.50
2008,10,23,17,40,9.50
2008,10,23,17,41,9.40
2008,10,23,17,42,9.40
2008,10,23,17,43,9.30
2008,10,23,17,44,9.30
2008,10,23,17,45,9.20
2008,10,23,17,46,9.20
2008,10,23,17,47,9.20
2008,10,23,17,48,9.10
2008,10,23,17,49,9.10
2008,10,23,17,50,9.00
2008,10,23,17,51,9.00
2008,10,23,17,52,9.00
2008,10,23,17,53,8.90
2008,10,23,17,54,8.90
2008,10,23,17,55,8.80
2008,10,23,17,56,8.80
2008,10,23,17,57,8.70
2008,10,23,17,58,8.70
2008,10,23,17,59,8.70
2008,10,23,18,00,8.60
2008,10,23,18,01,8.60
2008,10,23,18,02,8.50
2008,10,23,18,03,8.50
2008,10,23,18,04,8.40
2008,10,23,18,05,8.40
2008,10,23,18,06,8.30
2008,10,23,18,07,8.30
2008,10,23,18,08,8.20
2008,10,23,18,09,8.20
2008,10,23,18,10,8.20
2008,10,23,18,11,8.20
2008,10,23,18,12,8.20
2008,10,23,18,13,8.10
2008,10,23,18,14,8.10
2008,10,23,18,15,8.00
2008,10,23,18,16,8.00
2008,10,23,18,17,7.90
2008,10,23,18,18,7.90
2008,10,23,18,19,7.90
2008,10,23,18,20,7.80
2008,10,23,18,21,7.80
2008,10,23,18,22,7.80
2008,10,23,18,23,7.80
2008,10,23,18,24,7.70
2008,10,23,18,25,7.70
2008,10,23,18,26,7.60
2008,10,23,18,27,7.60
2008,10,23,18,28,7.50
2008,10,23,18,29,7.50
2008,10,23,18,30,7.40
2008,10,23,18,31,7.40
2008,10,23,18,32,7.30
2008,10,23,18,33,7.30
2008,10,23,18,34,7.30
2008,10,23,18,35,7.30
2008,10,23,18,36,7.20
2008,10,23,18,37,7.20
2008,10,23,18,38,7.20